FW2887 Weather Reports


time (UTC)temp
C
wind
direction
speed
KPH
gust
KPH
rain 1hr
cm
rain 24hr
cm
rain mn
cm
humidity
%
barometer
mb
20260510190724 27 321 0.0 0.0 0.00 0.00 0.00 27 1014.5
20260510190225 28 321 0.0 0.0 0.00 0.00 0.00 28 1014.6
20260510185726 27 330 0.0 0.0 0.00 0.00 0.00 30 1014.5
20260510185237 27 307 0.0 0.0 0.00 0.00 0.00 32 1014.6
20260510184718 28 303 0.0 0.0 0.00 0.00 0.00 28 1014.7
20260510184220 28 303 0.0 0.0 0.00 0.00 0.00 29 1014.7
20260510183729 28 303 0.0 0.0 0.00 0.00 0.00 29 1014.7
20260510183214 28 47 0.0 0.0 0.00 0.00 0.00 29 1014.8
20260510182716 28 41 0.0 0.0 0.00 0.00 0.00 32 1014.9
20260510182225 27 39 0.0 0.0 0.00 0.00 0.00 28 1015.0
20260510181729 27 29 0.0 0.0 0.00 0.00 0.00 35 1015.0
20260510181233 27 355 0.0 0.0 0.00 0.00 0.00 28 1015.0
20260510180715 27 248 0.0 0.0 0.00 0.00 0.00 34 1015.0
20260510180245 27 248 0.0 0.0 0.00 0.00 0.00 31 1015.1
20260510175734 27 141 0.0 0.0 0.00 0.00 0.00 31 1015.1
20260510175216 27 161 0.0 0.0 0.00 0.00 0.00 28 1015.2
20260510174720 27 267 0.0 0.0 0.00 0.00 0.00 29 1015.2
20260510174231 28 359 0.0 0.0 0.00 0.00 0.00 33 1015.2
20260510173731 28 359 0.0 0.0 0.00 0.00 0.00 31 1015.2
20260510173258 27 345 0.0 0.0 0.00 0.00 0.00 32 1015.2
20260510172722 27 250 0.0 0.0 0.00 0.00 0.00 32 1015.2
20260510172224 27 240 0.0 0.0 0.00 0.00 0.00 31 1015.2
20260510171733 27 251 0.0 0.0 0.00 0.00 0.00 27 1015.2
20260510171217 27 25 0.0 0.0 0.00 0.00 0.00 28 1015.3
20260510170719 27 299 0.0 0.0 0.00 0.00 0.00 28 1015.3
20260510170221 27 349 0.0 0.0 0.00 0.00 0.00 27 1015.2
20260510165748 27 224 0.0 0.0 0.00 0.00 0.00 29 1015.2
20260510165235 27 42 0.0 0.0 0.00 0.00 0.00 27 1015.3
20260510164735 27 49 0.0 0.0 0.00 0.00 0.00 31 1015.5
20260510164242 27 45 0.0 0.0 0.00 0.00 0.00 28 1015.4
20260510163722 27 42 0.0 0.0 0.00 0.00 0.00 29 1015.4
20260510163249 27 64 0.0 0.0 0.00 0.00 0.00 33 1015.5
20260510162729 26 359 0.0 0.0 0.00 0.00 0.00 31 1015.5
20260510162238 26 32 0.0 0.0 0.00 0.00 0.00 36 1015.5
20260510161719 26 30 0.0 0.0 0.00 0.00 0.00 38 1015.5
20260510161226 26 338 0.0 0.0 0.00 0.00 0.00 42 1015.6
20260510160727 26 16 0.0 0.0 0.00 0.00 0.00 40 1015.6
20260510160228 26 49 0.0 0.0 0.00 0.00 0.00 41 1015.7
20260510155735 26 54 0.0 0.0 0.00 0.00 0.00 38 1015.8
20260510155237 25 342 0.0 0.0 0.00 0.00 0.00 45 1015.8
20260510154723 25 75 0.0 0.0 0.00 0.00 0.00 43 1015.9
20260510154227 25 235 0.0 0.0 0.00 0.00 0.00 44 1015.9
20260510153730 25 237 0.0 0.0 0.00 0.00 0.00 44 1016.1
20260510153238 25 240 0.0 0.0 0.00 0.00 0.00 40 1016.1
20260510152718 25 316 0.0 0.0 0.00 0.00 0.00 47 1016.2
20260510152220 25 242 0.0 0.0 0.00 0.00 0.00 45 1016.1
20260510151726 25 242 0.0 0.0 0.00 0.00 0.00 47 1016.0
20260510151229 24 299 0.0 4.8 0.00 0.00 0.00 49 1016.0
20260510150736 24 300 1.6 4.8 0.00 0.00 0.00 51 1016.0
20260510150215 23 326 0.0 4.8 0.00 0.00 0.00 48 1016.0
20260510145723 23 326 1.6 4.8 0.00 0.00 0.00 53 1015.9
20260510145223 23 278 0.0 3.2 0.00 0.00 0.00 53 1015.9
20260510144724 23 244 0.0 1.6 0.00 0.00 0.00 55 1016.0
20260510144231 23 41 0.0 0.0 0.00 0.00 0.00 57 1016.0
20260510143713 23 41 0.0 0.0 0.00 0.00 0.00 58 1015.8
20260510143213 22 26 0.0 0.0 0.00 0.00 0.00 57 1015.8
20260510142740 22 26 0.0 0.0 0.00 0.00 0.00 60 1015.9
20260510142219 22 26 0.0 0.0 0.00 0.00 0.00 60 1015.8
20260510141727 22 26 0.0 0.0 0.00 0.00 0.00 63 1015.8
20260510141230 22 26 0.0 0.0 0.00 0.00 0.00 62 1015.8
20260510140739 22 26 0.0 0.0 0.00 0.00 0.00 63 1015.8
20260510140240 22 27 0.0 0.0 0.00 0.00 0.00 61 1015.9
20260510135726 21 27 0.0 6.4 0.00 0.00 0.00 65 1015.9
20260510135226 21 27 1.6 6.4 0.00 0.00 0.00 62 1015.9
20260510134734 21 36 3.2 6.4 0.00 0.00 0.00 62 1016.0
20260510134216 21 38 1.6 4.8 0.00 0.00 0.00 65 1015.9
20260510133716 20 30 3.2 4.8 0.00 0.00 0.00 65 1015.9
20260510133222 20 35 0.0 3.2 0.00 0.00 0.00 70 1015.9
20260510132742 20 26 0.0 1.6 0.00 0.00 0.00 73 1015.8
20260510132224 20 303 0.0 1.6 0.00 0.00 0.00 77 1015.8
20260510131722 19 303 0.0 0.0 0.00 0.00 0.00 79 1015.7
20260510131231 18 303 0.0 3.2 0.00 0.00 0.00 81 1015.8
20260510130729 18 303 0.0 4.8 0.00 0.00 0.00 82 1015.7
20260510130253 18 293 0.0 3.2 0.00 0.00 0.00 85 1015.6
20260510125730 18 247 0.0 0.0 0.00 0.00 0.00 86 1015.5
20260510125238 18 245 0.0 0.0 0.00 0.00 0.00 88 1015.5
20260510124719 17 245 0.0 0.0 0.00 0.00 0.00 89 1015.4
20260510124220 17 245 0.0 0.0 0.00 0.00 0.00 89 1015.2
20260510123748 17 245 0.0 0.0 0.00 0.00 0.00 90 1015.2
20260510123230 17 245 0.0 0.0 0.00 0.00 0.00 91 1015.2
20260510122739 17 243 0.0 0.0 0.00 0.00 0.00 91 1015.1
20260510122219 16 243 0.0 0.0 0.00 0.00 0.00 92 1015.2
20260510121720 16 243 0.0 0.0 0.00 0.00 0.00 92 1015.1
20260510121222 16 243 0.0 0.0 0.00 0.00 0.00 91 1015.1
20260510120750 16 243 0.0 0.0 0.00 0.00 0.00 91 1015.1
20260510120237 16 243 0.0 0.0 0.00 0.00 0.00 91 1015.0
20260510115718 16 242 0.0 0.0 0.00 0.00 0.00 91 1014.9
20260510115220 16 321 0.0 0.0 0.00 0.00 0.00 91 1014.9
20260510114728 16 321 0.0 0.0 0.00 0.00 0.00 91 1014.9
20260510114231 16 321 0.0 0.0 0.00 0.00 0.00 91 1014.8
20260510113719 16 321 0.0 0.0 0.00 0.00 0.00 91 1014.8
20260510113220 16 321 0.0 0.0 0.00 0.00 0.00 91 1014.7
20260510112722 16 238 0.0 0.0 0.00 0.00 0.00 91 1014.7
20260510112229 16 242 0.0 0.0 0.00 0.00 0.00 91 1014.6
20260510111728 15 242 0.0 0.0 0.00 0.00 0.00 91 1014.5
20260510111237 15 242 0.0 0.0 0.00 0.00 0.00 91 1014.4
20260510110719 15 242 0.0 0.0 0.00 0.00 0.00 91 1014.4
20260510110240 15 242 0.0 0.0 0.00 0.00 0.00 91 1014.2
20260510105725 15 243 0.0 0.0 0.00 0.00 0.00 91 1014.1
20260510105223 15 243 0.0 0.0 0.00 0.00 0.00 91 1014.1
20260510104726 15 243 0.0 0.0 0.00 0.00 0.00 91 1014.0
20260510104226 15 243 0.0 0.0 0.00 0.00 0.00 91 1013.9
20260510103752 15 243 0.0 0.0 0.00 0.00 0.00 91 1013.8
20260510103212 15 243 0.0 0.0 0.00 0.00 0.00 91 1013.7
20260510102712 15 243 0.0 0.0 0.00 0.00 0.00 90 1013.5
20260510102241 15 243 0.0 0.0 0.00 0.00 0.00 90 1013.5
20260510101721 15 243 0.0 0.0 0.00 0.00 0.00 90 1013.5
20260510101229 15 243 0.0 0.0 0.00 0.00 0.00 90 1013.4
20260510100731 15 243 0.0 0.0 0.00 0.00 0.00 90 1013.3
20260510100241 15 243 0.0 0.0 0.00 0.00 0.00 90 1013.3
20260510095721 15 243 0.0 0.0 0.00 0.00 0.00 90 1013.2
20260510095222 15 243 0.0 0.0 0.00 0.00 0.00 90 1013.1
20260510094752 16 243 0.0 0.0 0.00 0.00 0.00 90 1013.0
20260510094237 16 243 0.0 0.0 0.00 0.00 0.00 90 1013.0
20260510093718 16 243 0.0 0.0 0.00 0.00 0.00 90 1013.0
20260510093221 16 243 0.0 0.0 0.00 0.00 0.00 90 1012.9
20260510092721 16 243 0.0 0.0 0.00 0.00 0.00 90 1012.9
20260510092249 16 321 0.0 0.0 0.00 0.00 0.00 89 1012.9
20260510091737 16 321 0.0 0.0 0.00 0.00 0.00 89 1012.9
20260510091219 16 243 0.0 0.0 0.00 0.00 0.00 89 1012.8
20260510090719 16 243 0.0 0.0 0.00 0.00 0.00 89 1012.8
20260510090222 16 243 0.0 0.0 0.00 0.00 0.00 89 1012.8
20260510085730 16 243 0.0 0.0 0.00 0.00 0.00 89 1012.7
20260510085214 16 243 0.0 0.0 0.00 0.00 0.00 89 1012.5
20260510084717 16 243 0.0 0.0 0.00 0.00 0.00 89 1012.5
20260510084227 16 243 0.0 0.0 0.00 0.00 0.00 89 1012.4
20260510083730 16 243 0.0 0.0 0.00 0.00 0.00 89 1012.4
20260510083213 16 243 0.0 0.0 0.00 0.00 0.00 89 1012.5
20260510082722 16 243 0.0 0.0 0.00 0.00 0.00 89 1012.4
20260510082225 16 243 0.0 0.0 0.00 0.00 0.00 89 1012.4
20260510081727 16 243 0.0 0.0 0.00 0.00 0.00 88 1012.3
20260510081236 16 243 0.0 0.0 0.00 0.00 0.00 88 1012.4
20260510080720 16 243 0.0 0.0 0.00 0.00 0.00 88 1012.3
20260510080221 16 243 0.0 0.0 0.00 0.00 0.00 88 1012.4
20260510075728 16 243 0.0 0.0 0.00 0.00 0.00 88 1012.4
20260510075250 16 243 0.0 0.0 0.00 0.00 0.00 88 1012.4
20260510074718 16 243 0.0 0.0 0.00 0.00 0.00 88 1012.3
20260510074218 16 243 0.0 0.0 0.00 0.00 0.00 88 1012.2
20260510073749 16 243 0.0 0.0 0.00 0.00 0.00 88 1012.2
20260510073231 16 243 0.0 0.0 0.00 0.00 0.00 88 1012.1
20260510072732 16 243 0.0 0.0 0.00 0.00 0.00 88 1012.1
20260510072217 16 243 0.0 0.0 0.00 0.00 0.00 88 1012.1
20260510071719 16 243 0.0 0.0 0.00 0.00 0.00 88 1012.1
20260510071247 16 243 0.0 0.0 0.00 0.00 0.00 88 1012.2
20260510070728 16 258 0.0 0.0 0.00 0.00 0.00 87 1012.2
20260510070212 16 258 0.0 0.0 0.00 0.00 0.00 87 1012.2
20260510065721 16 258 0.0 0.0 0.00 0.00 0.00 87 1012.2
20260510065225 16 258 0.0 0.0 0.00 0.00 0.00 87 1012.2
20260510064726 17 258 0.0 0.0 0.00 0.00 0.00 86 1012.1
20260510064233 17 258 0.0 0.0 0.00 0.00 0.00 86 1012.1
20260510063716 17 258 0.0 0.0 0.00 0.00 0.00 86 1012.1
20260510063244 17 258 0.0 0.0 0.00 0.00 0.00 86 1012.0
20260510062725 17 258 0.0 0.0 0.00 0.00 0.00 86 1011.9
20260510062230 17 258 0.0 0.0 0.00 0.00 0.00 86 1011.8
20260510061712 17 258 0.0 0.0 0.00 0.00 0.00 86 1011.9
20260510061240 17 258 0.0 0.0 0.00 0.00 0.00 86 1012.1
20260510060729 17 258 0.0 0.0 0.00 0.00 0.00 86 1012.1
20260510060212 17 258 0.0 0.0 0.00 0.00 0.00 86 1012.3
20260510055715 17 258 0.0 0.0 0.00 0.00 0.00 86 1012.3
20260510055244 17 258 0.0 0.0 0.00 0.00 0.00 86 1012.3
20260510054725 17 259 0.0 0.0 0.00 0.00 0.00 86 1012.3
20260510054236 17 286 0.0 0.0 0.00 0.00 0.00 86 1012.3
20260510053716 17 256 0.0 8.0 0.00 0.00 0.00 86 1012.4
20260510053219 17 265 0.0 8.0 0.00 0.00 0.00 86 1012.5
20260510052721 17 243 0.0 0.0 0.00 0.00 0.00 86 1012.4
20260510052228 17 250 0.0 0.0 0.00 0.00 0.00 86 1012.5
20260510051730 17 246 0.0 0.0 0.00 0.00 0.00 86 1012.5
20260510051215 17 244 0.0 0.0 0.00 0.00 0.00 87 1012.5
20260510050724 17 245 0.0 0.0 0.00 0.00 0.00 87 1012.6
20260510050234 17 250 0.0 0.0 0.00 0.00 0.00 87 1012.5
20260510045712 17 249 0.0 4.8 0.00 0.00 0.00 87 1012.6
20260510045216 17 249 1.6 9.7 0.00 0.00 0.00 87 1012.6
20260510044722 17 242 0.0 12.9 0.00 0.00 0.00 87 1012.8
20260510044227 17 242 3.2 12.9 0.00 0.00 0.00 87 1012.8
20260510043728 17 265 0.0 0.0 0.00 0.00 0.00 87 1012.5
20260510043235 17 251 0.0 0.0 0.00 0.00 0.00 87 1012.6
20260510042717 17 252 0.0 0.0 0.00 0.00 0.00 87 1012.5
20260510042218 17 251 0.0 8.0 0.00 0.00 0.00 87 1012.5
20260510041720 17 252 0.0 8.0 0.00 0.00 0.00 87 1012.6
20260510041247 17 180 0.0 0.0 0.00 0.00 0.00 86 1012.5
20260510040733 17 236 0.0 0.0 0.00 0.00 0.00 86 1012.6
20260510040213 17 249 0.0 0.0 0.00 0.00 0.00 86 1012.5
20260510035714 17 249 0.0 0.0 0.00 0.00 0.00 86 1012.5
20260510035245 17 249 0.0 0.0 0.00 0.00 0.00 86 1012.5
20260510034726 17 250 0.0 0.0 0.00 0.00 0.00 86 1012.5
20260510034235 17 240 0.0 0.0 0.00 0.00 0.00 86 1012.5
20260510033715 17 263 0.0 0.0 0.00 0.00 0.00 86 1012.5
20260510033236 17 232 0.0 6.4 0.00 0.00 0.00 86 1012.4
20260510032742 17 235 0.0 6.4 0.00 0.00 0.00 86 1012.4
20260510032228 17 249 0.0 0.0 0.00 0.00 0.00 86 1012.4
20260510031728 17 259 0.0 0.0 0.00 0.00 0.00 86 1012.3
20260510031230 17 260 0.0 1.6 0.00 0.00 0.00 86 1012.4
20260510030739 17 258 0.0 3.2 0.00 0.00 0.00 86 1012.3
20260510030217 17 230 0.0 3.2 0.00 0.00 0.00 86 1012.3
20260510025723 17 235 0.0 6.4 0.00 0.00 0.00 86 1012.3
20260510025229 17 235 1.6 6.4 0.00 0.00 0.00 86 1012.2
20260510024730 17 272 0.0 0.0 0.00 0.00 0.00 86 1012.2
20260510024237 17 274 0.0 0.0 0.00 0.00 0.00 86 1012.2
20260510023738 17 85 0.0 0.0 0.00 0.00 0.00 85 1012.3
20260510023223 17 85 0.0 0.0 0.00 0.00 0.00 85 1012.2
20260510022725 17 85 0.0 0.0 0.00 0.00 0.00 85 1012.2
20260510022232 17 85 0.0 0.0 0.00 0.00 0.00 85 1012.2
20260510021711 17 85 0.0 0.0 0.00 0.00 0.00 85 1012.1
20260510021213 17 85 0.0 0.0 0.00 0.00 0.00 84 1012.1
20260510020740 17 307 0.0 0.0 0.00 0.00 0.00 84 1012.2
20260510020219 17 307 0.0 0.0 0.00 0.00 0.00 84 1012.1
20260510015726 17 307 0.0 0.0 0.00 0.00 0.00 84 1012.1
20260510015228 17 307 0.0 0.0 0.00 0.00 0.00 83 1012.0
20260510014730 17 307 0.0 0.0 0.00 0.00 0.00 83 1012.0
20260510014212 18 307 0.0 0.0 0.00 0.00 0.00 82 1011.9
20260510013742 18 307 0.0 0.0 0.00 0.00 0.00 82 1011.7
20260510013228 18 307 0.0 0.0 0.00 0.00 0.00 82 1011.6
20260510012731 18 307 0.0 0.0 0.00 0.00 0.00 81 1011.6
20260510012215 18 307 0.0 0.0 0.00 0.00 0.00 81 1011.4
20260510011742 18 307 0.0 0.0 0.00 0.00 0.00 80 1011.3
20260510011222 18 307 0.0 0.0 0.00 0.00 0.00 80 1011.3
20260510010731 18 307 0.0 0.0 0.00 0.00 0.00 79 1011.2
20260510010211 18 307 0.0 0.0 0.00 0.00 0.00 79 1011.2
20260510005732 18 307 0.0 0.0 0.00 0.00 0.00 78 1011.1
20260510005240 19 307 0.0 0.0 0.00 0.00 0.00 78 1011.2
20260510004721 19 307 0.0 0.0 0.00 0.00 0.00 78 1011.2
20260510004229 19 307 0.0 0.0 0.00 0.00 0.00 77 1011.2
20260510003750 19 307 0.0 0.0 0.00 0.00 0.00 75 1011.2
20260510003237 20 307 0.0 0.0 0.00 0.00 0.00 75 1011.2
20260510002721 20 307 0.0 0.0 0.00 0.00 0.00 75 1011.3
20260510002226 20 307 0.0 0.0 0.00 0.00 0.00 75 1011.2
20260510001728 20 307 0.0 0.0 0.00 0.00 0.00 75 1011.2
20260510001229 20 307 0.0 0.0 0.00 0.00 0.00 74 1011.2
20260510000716 20 307 0.0 0.0 0.00 0.00 0.00 73 1011.0
20260510000218 20 307 0.0 0.0 0.00 0.00 0.00 73 1011.0
20260509235721 20 307 0.0 0.0 0.00 0.00 0.00 73 1010.9
20260509235229 20 307 0.0 0.0 0.00 0.00 0.00 73 1010.9
20260509234757 20 307 0.0 0.0 0.00 0.00 0.00 73 1010.8
20260509234218 21 307 0.0 0.0 0.00 0.00 0.00 72 1010.6
20260509233717 21 307 0.0 0.0 0.00 0.00 0.00 71 1010.5
20260509233220 21 307 0.0 0.0 0.00 0.00 0.00 72 1010.5
20260509232729 21 307 0.0 0.0 0.00 0.00 0.00 72 1010.7
20260509232230 21 307 0.0 0.0 0.00 0.00 0.00 70 1010.6
20260509231711 21 307 0.0 0.0 0.00 0.00 0.00 71 1010.5
20260509231221 21 307 0.0 0.0 0.00 0.00 0.00 70 1010.4
20260509230722 21 307 0.0 0.0 0.00 0.00 0.00 69 1010.4
20260509230230 21 307 0.0 0.0 0.00 0.00 0.00 70 1010.4
20260509225731 21 333 0.0 0.0 0.00 0.00 0.00 67 1010.4
20260509225211 21 333 0.0 0.0 0.00 0.00 0.00 66 1010.2
20260509224712 21 333 0.0 0.0 0.00 0.00 0.00 66 1010.2
20260509224218 21 256 0.0 0.0 0.00 0.00 0.00 66 1010.3
20260509223722 22 264 0.0 1.6 0.00 0.00 0.00 65 1010.3
20260509223228 22 253 0.0 1.6 0.00 0.00 0.00 66 1010.4
20260509222711 22 257 0.0 0.0 0.00 0.00 0.00 66 1010.4
20260509222232 22 265 0.0 0.0 0.00 0.00 0.00 65 1010.5
20260509221713 22 260 0.0 0.0 0.00 0.00 0.00 66 1010.4
20260509221221 22 260 0.0 0.0 0.00 0.00 0.00 65 1010.4
20260509220723 22 233 0.0 0.0 0.00 0.00 0.00 65 1010.5
20260509220230 22 234 0.0 9.7 0.00 0.00 0.00 65 1010.4
20260509215752 22 183 6.4 9.7 0.00 0.00 0.00 65 1010.4
20260509215217 22 198 0.0 0.0 0.00 0.00 0.00 67 1010.4
20260509214737 22 355 0.0 0.0 0.00 0.00 0.00 65 1010.4
20260509214222 22 287 0.0 0.0 0.00 0.00 0.00 65 1010.4
20260509213732 22 260 0.0 0.0 0.00 0.00 0.00 65 1010.4
20260509213232 22 252 0.0 0.0 0.00 0.00 0.00 66 1010.3
20260509212715 22 234 0.0 0.0 0.00 0.00 0.00 65 1010.1
20260509212222 22 159 0.0 0.0 0.00 0.00 0.00 64 1010.2
20260509211751 22 209 0.0 0.0 0.00 0.00 0.00 63 1010.1
20260509211250 22 252 0.0 17.7 0.00 0.00 0.00 65 1010.1
20260509210738 22 222 4.8 17.7 0.00 0.00 0.00 63 1010.0
20260509210218 22 279 3.2 11.3 0.00 0.00 0.00 63 1010.1
20260509205722 22 234 0.0 6.4 0.00 0.00 0.00 62 1010.2
20260509205231 22 246 1.6 6.4 0.00 0.00 0.00 63 1010.2
20260509204731 22 262 0.0 0.0 0.00 0.00 0.00 64 1010.2
20260509204232 22 254 0.0 0.0 0.00 0.00 0.00 64 1010.3
20260509203716 22 222 0.0 0.0 0.00 0.00 0.00 65 1010.2
20260509203222 21 253 0.0 0.0 0.00 0.00 0.00 65 1010.2
20260509202751 22 208 0.0 0.0 0.00 0.00 0.00 64 1010.2
20260509202252 22 254 0.0 11.3 0.00 0.00 0.00 64 1010.1
20260509201714 22 247 0.0 12.9 0.00 0.00 0.00 63 1010.2
20260509201221 22 243 0.0 12.9 0.00 0.00 0.00 62 1010.2
20260509200750 22 227 3.2 11.3 0.00 0.00 0.00 62 1010.1
20260509200229 22 251 0.0 3.2 0.00 0.00 0.00 62 1010.3
20260509195730 21 258 0.0 19.3 0.00 0.00 0.00 61 1010.4
20260509195238 22 258 6.4 19.3 0.00 0.00 0.00 60 1010.5
20260509194720 22 166 0.0 0.0 0.00 0.00 0.00 62 1010.6
20260509194222 21 193 0.0 0.0 0.00 0.00 0.00 62 1010.6
20260509193728 21 250 0.0 0.0 0.00 0.00 0.00 60 1010.6
20260509193230 21 232 0.0 6.4 0.00 0.00 0.00 60 1010.7
20260509192732 22 228 1.6 6.4 0.00 0.00 0.00 59 1010.7
20260509192223 22 222 0.0 11.3 0.00 0.00 0.00 58 1010.8
20260509191726 22 271 3.2 9.7 0.00 0.00 0.00 57 1010.8
20260509191227 22 249 0.0 9.7 0.00 0.00 0.00 56 1010.7